Location: Unspecified
(41.5000°N, 0.0000°E)
Time: 16:05:08
(UTC+00:00)

deb Explorer IX - Pass Details

Date: 28 June 2019
Orbit: 540 x 1111 km, 38.8° (Epoch: 20 August)

Event Time Altitude Azimuth Distance (km) Brightness Sun altitude
Rises 12:50:43 0° 258° (WSW) 3,604 ? 69.3°
Reaches altitude 10° 12:53:13 10° 256° (WSW) 2,732 ? 69.0°
Maximum altitude 12:59:55 71° 174° (S) 1,122 ? 68.3°
Drops below altitude 10° 13:07:14 10° 92° (E) 2,968 ? 67.4°
Sets 13:10:04 0° 91° (E) 3,932 ? 67.0°
